Notices

What's New in latest Release from April 7th, 2021:

- Updated Glossary, including Speed of Maximum Gust, and Total Hourly Precipitation

- Updated national and regional climate services offices contacts and prices information

- Addition of station inventory lists for 1981-2010, 1971-2000, and 1961-1990 Normals.

If you haven't already, please take our survey and provide feedback about our website: https://eccc.sondage-survey.ca/f/LanguageSelection.aspx?s=442ca660-fcf1-47c0-95a9-59707d6fd709

Hourly Data Report for April 16, 2018

CLYDE RIVER A
NUNAVUT
Current Station Operator: NAVCAN

70°29'09.000" N
68°31'01.000" W
26.50 m
2400804
71090
YCY

Download Data

Hourly Data (April 2018)
Hourly Data Report for April 16, 2018
TIME
LST
Temp Definition
°C
Dew Point Definition
°C
Rel Hum Definition
%
Precip. Amount Definition
mm

Wind Dir Definition
10's deg

Wind Spd Definition
km/h
Visibility Definition
km
Stn Press Definition
kPa
Hmdx Definition


Wind Chill Definition


Weather Definition


00:00 -17.2 -19.7 81 0.0 14 13 16.1 101.99   -25 LegendNANA
01:00 -19.2 -21.4 83 0.0 14 13 16.1 101.96   -27 LegendNANA
02:00 -20.0 -22.1 84 0.0 11 9 16.1 101.93   -27 LegendNANA
03:00 -21.8 -23.5 86 0.0 3 9 16.1 101.90   -29 LegendNANA
04:00 -22.3 -24.5 83 0.0 6 8 16.1 101.85   -29 LegendNANA
05:00 -20.7 -22.9 83 0.0 3 8 16.1 101.82   -27 LegendNANA
06:00 -18.1 -20.4 82 0.0 6 5 16.1 101.76   -22 LegendNANA
07:00 -14.3 -17.5 77 0.0 33 9 16.1 101.65   -20 LegendNANA
08:00 -13.3 -16.8 75 0.0 36 15 16.1 101.60   -21 LegendNANA
09:00 -13.1 -16.3 77 0.0 34 11 16.1 101.58   -19 LegendNANA
10:00 -10.2 -14.2 73 0.0 33 13 16.1 101.59   -16 LegendNANA
11:00 -11.1 -14.2 78 0.0   0 16.1 101.64     LegendNANA
12:00 -12.3 -15.0 80 0.0 36 9 16.1 101.65   -18 LegendNANA
13:00 -10.9 -13.9 79 0.0 LegendMM 4 16.1 101.66   -13 LegendNANA
14:00 -10.7 -13.2 82 0.0 32 32 16.1 101.64   -21 LegendNANA
15:00 -11.0 -13.4 83 0.0 33 32 16.1 101.68   -21 LegendNANA
16:00 -11.1 -13.7 81 0.0 32 30 16.1 101.75   -21 LegendNANA
17:00 -11.2 -14.1 80 0.0 33 22 16.1 101.80   -20 Snow
18:00 -11.7 -14.6 79 0.0 32 22 16.1 101.82   -20 Snow
19:00 -12.7 -15.2 82 0.0 32 18 16.1 101.85   -21 LegendNANA
20:00 -13.0 -15.2 84 0.0 31 15 16.1 101.89   -20 Snow
21:00 -13.2 -15.4 84 0.0 32 21 16.1 101.91   -22 Snow
22:00 -13.5 -15.7 84 0.0 33 18 16.1 101.91   -22 Snow
23:00 -13.7 -15.7 85 0.0 32 5 16.1 101.94   -17 Snow

Notes on Data Quality.

Legend

  • E = Estimated
  • M = Missing
  • NA = Not Available*
  • [empty] = Indicates an unobserved value
Date modified: